SXSIP LGKR-LGPZ

Flight info

Callsign SXSIP
Flight time 0h 24m
Altitude 7500
Route NIKRO DCT MALED DCT NIDRI
Aircraft BE58/L-SDFGRY/C

Departure

Time 2026-04-22 16:39
Airport Corfu Ioannis Kapodistrias International Airport (LGKR)

Arrival

Time 2026-04-22 17:04
Airport Aktion National Airport (LGPZ)
Time Latitude Longitude Altitude Speed Heading
2026-04-22 16:19 39.61205 19.91134 6 ft 0 kts 259°
2026-04-22 16:31 39.61201 19.91124 4 ft 4 kts 235°
2026-04-22 16:31 39.61149 19.91100 2 ft 10 kts 170°
2026-04-22 16:32 39.61068 19.91118 2 ft 13 kts 171°
2026-04-22 16:32 39.60970 19.91145 1 ft 15 kts 165°
2026-04-22 16:32 39.60858 19.91171 0 ft 17 kts 174°
2026-04-22 16:32 39.60737 19.91207 0 ft 18 kts 166°
2026-04-22 16:33 39.60699 19.91219 -1 ft 0 kts 168°
2026-04-22 16:33 39.60695 19.91220 -1 ft 2 kts 167°
2026-04-22 16:33 39.60660 19.91227 -1 ft 7 kts 180°
2026-04-22 16:34 39.60630 19.91217 -1 ft 0 kts 201°
2026-04-22 16:35 39.60628 19.91217 -1 ft 1 kts 201°
2026-04-22 16:35 39.60597 19.91200 -1 ft 7 kts 202°
2026-04-22 16:36 39.60527 19.91163 -1 ft 13 kts 200°
2026-04-22 16:36 39.60413 19.91158 -2 ft 19 kts 171°
2026-04-22 16:36 39.60265 19.91197 -3 ft 23 kts 174°
2026-04-22 16:36 39.60098 19.91239 -3 ft 25 kts 169°
2026-04-22 16:37 39.59921 19.91284 -2 ft 25 kts 169°
2026-04-22 16:37 39.59750 19.91329 -2 ft 24 kts 170°
2026-04-22 16:37 39.59583 19.91373 -1 ft 24 kts 172°
2026-04-22 16:37 39.59419 19.91413 0 ft 23 kts 169°
2026-04-22 16:38 39.59256 19.91453 0 ft 20 kts 175°
2026-04-22 16:38 39.59222 19.91467 0 ft 14 kts 343°
2026-04-22 16:38 39.59243 19.91460 0 ft 0 kts 348°
2026-04-22 16:38 39.59244 19.91459 0 ft 2 kts 348°
2026-04-22 16:39 39.59594 19.91368 -1 ft 92 kts 348°
2026-04-22 16:39 39.60347 19.91197 118 ft 123 kts 347°
2026-04-22 16:39 39.61222 19.91041 471 ft 130 kts 346°
2026-04-22 16:39 39.62129 19.90924 858 ft 135 kts 355°
2026-04-22 16:40 39.63035 19.91088 1356 ft 133 kts 20°
2026-04-22 16:40 39.63765 19.91878 1667 ft 145 kts 49°
2026-04-22 16:40 39.64487 19.94392 2339 ft 153 kts 77°
2026-04-22 16:41 39.64673 19.95738 2713 ft 150 kts 79°
2026-04-22 16:41 39.64840 19.97048 3080 ft 148 kts 79°
2026-04-22 16:41 39.65008 19.98371 3478 ft 147 kts 79°
2026-04-22 16:41 39.65157 19.99689 3884 ft 145 kts 80°
2026-04-22 16:42 39.65359 20.01453 4351 ft 145 kts 79°
2026-04-22 16:42 39.65463 20.02318 4583 ft 145 kts 79°
2026-04-22 16:42 39.65620 20.03685 4874 ft 150 kts 79°
2026-04-22 16:42 39.65778 20.05050 5173 ft 151 kts 79°
2026-04-22 16:43 39.65944 20.06448 5466 ft 153 kts 79°
2026-04-22 16:43 39.66110 20.07797 5868 ft 146 kts 77°
2026-04-22 16:43 39.66269 20.09155 6136 ft 150 kts 79°
2026-04-22 16:43 39.66376 20.10540 6435 ft 151 kts 90°
2026-04-22 16:44 39.66112 20.11873 6772 ft 150 kts 119°
2026-04-22 16:44 39.65319 20.12769 6996 ft 155 kts 159°
2026-04-22 16:44 39.64245 20.13136 7153 ft 160 kts 170°
2026-04-22 16:44 39.63149 20.13470 7327 ft 164 kts 166°
2026-04-22 16:45 39.62074 20.13893 7562 ft 165 kts 164°
2026-04-22 16:45 39.60939 20.14372 7511 ft 179 kts 162°
2026-04-22 16:45 39.59730 20.14899 7495 ft 187 kts 163°
2026-04-22 16:45 39.58488 20.15399 7550 ft 185 kts 165°
2026-04-22 16:46 39.57241 20.15883 7446 ft 196 kts 164°
2026-04-22 16:46 39.55932 20.16412 7460 ft 193 kts 163°
2026-04-22 16:46 39.54653 20.16939 7451 ft 195 kts 163°
2026-04-22 16:46 39.53365 20.17470 7447 ft 194 kts 163°
2026-04-22 16:47 39.52074 20.18004 7455 ft 195 kts 163°
2026-04-22 16:47 39.50790 20.18534 7446 ft 194 kts 163°
2026-04-22 16:47 39.49493 20.19070 7456 ft 194 kts 163°
2026-04-22 16:47 39.48208 20.19599 7448 ft 194 kts 163°
2026-04-22 16:48 39.46927 20.20128 7455 ft 194 kts 163°
2026-04-22 16:48 39.45631 20.20662 7449 ft 194 kts 163°
2026-04-22 16:48 39.44350 20.21190 7454 ft 194 kts 163°
2026-04-22 16:48 39.43061 20.21720 7450 ft 194 kts 163°
2026-04-22 16:49 39.41781 20.22248 7453 ft 194 kts 163°
2026-04-22 16:49 39.40499 20.22775 7450 ft 194 kts 163°
2026-04-22 16:49 39.39212 20.23305 7453 ft 194 kts 163°
2026-04-22 16:49 39.37924 20.23835 7451 ft 194 kts 163°
2026-04-22 16:50 39.36647 20.24359 7453 ft 194 kts 163°
2026-04-22 16:50 39.35363 20.24887 7452 ft 194 kts 163°
2026-04-22 16:50 39.34067 20.25420 7452 ft 194 kts 163°
2026-04-22 16:50 39.32779 20.25949 7451 ft 194 kts 163°
2026-04-22 16:51 39.31504 20.26472 7442 ft 192 kts 163°
2026-04-22 16:51 39.30222 20.26999 7437 ft 190 kts 163°
2026-04-22 16:51 39.28975 20.27511 7443 ft 189 kts 163°
2026-04-22 16:51 39.27717 20.28027 7446 ft 188 kts 163°
2026-04-22 16:52 39.26476 20.28535 7449 ft 187 kts 163°
2026-04-22 16:52 39.25245 20.29039 7451 ft 187 kts 163°
2026-04-22 16:52 39.23999 20.29550 7451 ft 187 kts 163°
2026-04-22 16:52 39.22754 20.30058 7451 ft 187 kts 162°
2026-04-22 16:53 39.21624 20.30868 7403 ft 190 kts 145°
2026-04-22 16:53 39.20580 20.31886 7467 ft 187 kts 142°
2026-04-22 16:53 39.19559 20.32935 7440 ft 188 kts 141°
2026-04-22 16:53 39.18528 20.33998 7459 ft 188 kts 141°
2026-04-22 16:54 39.17523 20.35034 7450 ft 188 kts 141°
2026-04-22 16:54 39.16487 20.36101 7455 ft 188 kts 142°
2026-04-22 16:54 39.15454 20.37166 7453 ft 188 kts 142°
2026-04-22 16:54 39.14426 20.38222 7453 ft 188 kts 142°
2026-04-22 16:55 39.13403 20.39275 7453 ft 188 kts 142°
2026-04-22 16:55 39.12379 20.40328 7453 ft 188 kts 142°
2026-04-22 16:55 39.11356 20.41379 7453 ft 188 kts 142°
2026-04-22 16:55 39.10323 20.42438 7309 ft 193 kts 142°
2026-04-22 16:56 39.09261 20.43500 7143 ft 192 kts 143°
2026-04-22 16:56 39.08209 20.44561 6944 ft 194 kts 142°
2026-04-22 16:56 39.07160 20.45647 6720 ft 197 kts 141°
2026-04-22 16:56 39.06059 20.46759 6332 ft 204 kts 144°
2026-04-22 16:57 39.04969 20.47885 6053 ft 203 kts 136°
2026-04-22 16:57 39.04086 20.49293 5787 ft 201 kts 121°
2026-04-22 16:57 39.03538 20.50932 5482 ft 199 kts 107°
2026-04-22 16:57 39.03107 20.52595 5204 ft 196 kts 111°
2026-04-22 16:58 39.02475 20.54126 4975 ft 191 kts 123°
2026-04-22 16:58 39.01671 20.55499 4710 ft 189 kts 136°
2026-04-22 16:58 39.00574 20.56293 4491 ft 183 kts 169°
2026-04-22 16:58 38.99347 20.56636 4325 ft 178 kts 170°
2026-04-22 16:59 38.98164 20.57066 4175 ft 176 kts 164°
2026-04-22 16:59 38.97023 20.57633 3997 ft 177 kts 160°
2026-04-22 16:59 38.95879 20.58246 3764 ft 179 kts 161°
2026-04-22 16:59 38.94723 20.58869 3562 ft 179 kts 160°
2026-04-22 17:00 38.93586 20.59478 3441 ft 175 kts 161°
2026-04-22 17:00 38.91337 20.60696 3106 ft 174 kts 160°
2026-04-22 17:00 38.90214 20.61298 2916 ft 175 kts 161°
2026-04-22 17:01 38.89146 20.62036 2802 ft 173 kts 147°
2026-04-22 17:01 38.88303 20.63153 2634 ft 178 kts 126°
2026-04-22 17:01 38.87868 20.64632 2459 ft 180 kts 98°
2026-04-22 17:01 38.87915 20.66226 2317 ft 178 kts 76°
2026-04-22 17:02 38.88368 20.67725 2040 ft 176 kts 64°
2026-04-22 17:02 38.88943 20.68997 1910 ft 160 kts 51°
2026-04-22 17:02 38.89673 20.70058 1611 ft 158 kts 43°
2026-04-22 17:02 38.90449 20.71021 1293 ft 156 kts 41°
2026-04-22 17:03 38.91146 20.72095 888 ft 154 kts 59°
2026-04-22 17:03 38.91555 20.73288 505 ft 141 kts 68°
2026-04-22 17:03 38.91906 20.74392 232 ft 120 kts 68°
2026-04-22 17:03 38.92179 20.75281 13 ft 92 kts 69°
2026-04-22 17:04 38.92371 20.75901 6 ft 60 kts 66°
2026-04-22 17:04 38.92505 20.76325 5 ft 44 kts 65°
2026-04-22 17:04 38.92607 20.76650 5 ft 35 kts 68°
2026-04-22 17:04 38.92690 20.76914 6 ft 29 kts 68°
2026-04-22 17:05 38.92738 20.77120 7 ft 18 kts 130°
2026-04-22 17:05 38.92686 20.77151 7 ft 0 kts 157°
2026-04-22 17:06 38.92681 20.77154 7 ft 3 kts 158°
2026-04-22 17:06 38.92629 20.77180 7 ft 12 kts 158°
2026-04-22 17:06 38.92560 20.77217 7 ft 3 kts 158°
2026-04-22 17:06 38.92546 20.77223 6 ft 5 kts 161°
2026-04-22 17:07 38.92485 20.77253 6 ft 13 kts 158°
2026-04-22 17:07 38.92445 20.77263 6 ft 0 kts 191°